Kosmos-414

operational
NORAD ID: 5213 Int'l Des: 1971-041 Owner: OKB10 Country: SU
LEOCIRCULAR

Kosmos-414について

説明を読み込み中...

リアルタイム位置

3D地球を読み込み中...

次回通過

高度履歴

Altitude vs Time

uPlot chart will show altitude changes over time

軌道要素

1 05213U 71041D 25342.65850253 -.00000009 00000-0 43539-4 0 9992
2 05213 74.0125 158.6417 0042588 5.8785 65.5132 12.51145284493320
Epoch: Dec 8, 2025 • Age: 8 hours

現在のステータス

高度 1499.2 km
速度 7.10 km/s
衛星直下点 -20.97°S, 96.17°W
タイプ other

大規模コンステレーション

Loading constellations...